Home > Weather > May Pen > Past weeks

Flag for Jamaica Past Weather in May Pen, Jamaica — Yesterday and Last 2 Weeks

Now
82 °F

Thundershowers. Passing clouds.


Feels Like: 88 °F
Forecast: 73 / 90 °F
Wind: 2 mph from North

Location: Kingston / Norman Manley

Current Time: Jul 30, 2016 at 4:21:26 AM

Latest Report: Jul 30, 2016 at 3:00 AM


Visibility: N/A

Pressure: 29.89 "Hg

Humidity: 74%

Dew Point: 73 °F

Location of May PenLocation

Past Weather in May Pen — Graph

°F

May Pen Temperature Yesterday

Maximum temperature yesterday: 90 °F (at 10:00 AM)
Minimum temperature yesterday: 82 °F (at 5:00 AM)
Average temperature yesterday: 86 °F

High & Low Weather Summary for the Past Weeks

 TemperatureHumidityPressure
High93 °F (Jul 17, 1:00 PM)89% (Jul 15, 5:00 PM)30.01 "Hg (Jul 15, 5:00 PM)
Low79 °F (Jul 15, 5:00 PM)53% (Jul 28, 3:00 PM)29.86 "Hg (Jul 25, 4:00 PM)
Average86 °F70%29.95 "Hg
* Reported Jul 15 3:00 AM — Jul 30 3:00 AM, May Pen, Weather by CustomWeather, © 2016

Note: Actual official high and low records may vary slightly from our data, if they occured in-between our weather recording intervals... More about our weather records

Advertising

May Pen Weather History for the Previous 24 Hours

Scroll right to see more
 ConditionsComfort  
Time TempWeatherWind HumidityBarometerVisibility
3:00 AM
Sat, Jul 30
82 °FThundershowers. Passing clouds.2 mph74%29.89 "HgN/A
2:00 AM82 °FThundershowers. Passing clouds.6 mph74%29.92 "HgN/A
1:00 AM84 °FThundershowers. Passing clouds.6 mph74%29.95 "HgN/A
12:00 AM84 °FPassing clouds.3 mph70%29.95 "HgN/A
11:00 PM
Fri, Jul 29
84 °FPassing clouds.5 mph70%29.95 "HgN/A
10:00 PM86 °FPassing clouds.13 mph70%29.95 "HgN/A
9:00 PM84 °FPassing clouds.5 mphN/A29.95 "HgN/A
8:00 PM86 °FPassing clouds.15 mph66%29.95 "HgN/A
7:00 PM86 °FPassing clouds.14 mph75%29.92 "HgN/A
6:00 PM86 °FPassing clouds.17 mph75%29.89 "HgN/A
5:00 PM84 °FScattered showers. Scattered clouds.22 mph74%29.89 "HgN/A
4:00 PM88 °FPassing clouds.18 mph70%29.89 "HgN/A
3:00 PM88 °FScattered showers. Scattered clouds.18 mph70%29.89 "HgN/A
2:00 PM88 °FScattered showers. Passing clouds.20 mph70%29.92 "HgN/A
1:00 PM86 °FSprinkles. Passing clouds.21 mph79%29.92 "HgN/A
12:00 PM88 °FPassing clouds.23 mph70%29.95 "HgN/A
11:00 AM90 °FPassing clouds.18 mph67%29.95 "HgN/A
10:00 AM90 °FPassing clouds.13 mph63%29.98 "HgN/A
9:00 AM86 °FPassing clouds.5 mph66%29.98 "HgN/A
8:00 AM84 °FPassing clouds.7 mph70%29.95 "HgN/A
7:00 AM84 °FSunny.6 mph66%29.95 "Hg10 mi
6:00 AM82 °FPassing clouds.9 mph66%29.92 "HgN/A
5:00 AM82 °FPassing clouds.7 mph66%29.92 "HgN/A
4:00 AM84 °FPassing clouds.8 mph66%29.92 "HgN/A
Weather by CustomWeather, © 2016

See weather overviewHow to use our weather pages